Chennai, India

11:57 PM IST on October 22, 2017 (GMT +0530)
Chennai International

Weather History for VOMM - June, 2013

Change the Weather History Date:

Monday, June 17, 2013

  Actual Average Record
Temperature  
Mean Temperature 92 °F -  
Max Temperature 102 °F 93 °F 105 °F (2014)
Min Temperature 83 °F 79 °F 76 °F (2015)
Cooling Degree Days 28    
Growing Degree Days 42 (Base 50)    
Moisture  
Dew Point 69 °F    
Average Humidity 48    
Maximum Humidity 70    
Minimum Humidity 27    
Precipitation  
Precipitation 0.00 in 0.13 in - ()
Sea Level Pressure  
Sea Level Pressure 29.60 in    
Wind  
Wind Speed 10 mph ()    
Max Wind Speed 16 mph    
Max Gust Speed 28 mph    
Visibility 4.1 miles    
Events      
Averages and records for this station are not official NWS values.
T = Trace of Precipitation, MM = Missing Value Source: Averaged Metar Reports

Daily Weather History Graph

Daily Weather History Graph

Search for Another Location

Airport or City:

Trip Planner

Search our weather history database for the weather conditions in past years. The results will help you decide how hot, cold, wet, or windy it might be!

Date:

Astronomy

Jun. 17, 2013 Rise Set
Actual Time 5:43 AM IST 6:36 PM IST
Civil Twilight 5:20 AM IST 7:00 PM IST
Nautical Twilight 4:52 AM IST 7:27 PM IST
Astronomical Twilight 4:24 AM IST 7:56 PM IST
Moon 12:37 PM IST (6/17) No Moon Set
Length of Visible Light 13h 40m
Length of Day
12h 53m
First Quarter, 56% of the Moon is Illuminated
Jun 17
First Quarter
Jun 23
Full
Jun 30
Last Quarter
Jul 8
New
Jul 16
First Quarter

Hourly Weather History & Observations

Time (IST) Temp. Heat Index Dew Point Humidity Pressure Visibility Wind Dir Wind Speed Gust Speed Precip Events Conditions
12:10 AM 89.6 °F 93.4 °F 68.0 °F 49% 29.62 in 3.7 mi West 13.8 mph - N/A   Mostly Cloudy
12:40 AM 89.6 °F 93.4 °F 68.0 °F 49% 29.62 in 3.7 mi WSW 11.5 mph - N/A   Mostly Cloudy
1:10 AM 87.8 °F 91.4 °F 68.0 °F 52% 29.59 in 3.7 mi West 13.8 mph - N/A   Scattered Clouds
1:40 AM 87.8 °F 90.4 °F 66.2 °F 49% 29.59 in 3.7 mi WSW 11.5 mph - N/A   Scattered Clouds
2:10 AM 87.8 °F 90.4 °F 66.2 °F 49% 29.59 in 3.7 mi West 16.1 mph - N/A   Scattered Clouds
2:30 AM 87 °F - 68 °F 43% 29.63 in 2 mi WNW 5.8 mph - -   Scattered Clouds
2:40 AM 87.8 °F 90.4 °F 66.2 °F 49% 29.59 in 3.7 mi WSW 9.2 mph - N/A   Scattered Clouds
3:10 AM 86.0 °F 89.4 °F 68.0 °F 55% 29.59 in 3.7 mi WSW 6.9 mph - N/A   Scattered Clouds
3:40 AM 86.0 °F 89.4 °F 68.0 °F 55% 29.59 in 3.7 mi West 8.1 mph - N/A   Scattered Clouds
4:10 AM 86.0 °F 89.4 °F 68.0 °F 55% 29.59 in 3.7 mi West 6.9 mph - N/A   Scattered Clouds
4:40 AM 84.2 °F 87.3 °F 68.0 °F 58% 29.59 in 3.7 mi West 8.1 mph - N/A   Mostly Cloudy
5:10 AM 84.2 °F 87.3 °F 68.0 °F 58% 29.62 in 3.7 mi WSW 9.2 mph - N/A   Mostly Cloudy
5:30 AM 86 °F - 69 °F 47% 29.63 in 2 mi West 5.8 mph - -   Scattered Clouds
5:40 AM 84.2 °F 87.3 °F 68.0 °F 58% 29.62 in 3.7 mi WSW 9.2 mph - N/A   Mostly Cloudy
6:10 AM 84.2 °F 87.3 °F 68.0 °F 58% 29.62 in 3.7 mi West 10.4 mph - N/A   Mostly Cloudy
6:40 AM 84.2 °F 87.3 °F 68.0 °F 58% 29.62 in 3.7 mi West 10.4 mph - N/A   Scattered Clouds
7:10 AM 86.0 °F 90.4 °F 69.8 °F 58% 29.65 in 3.7 mi West 9.2 mph - N/A   Scattered Clouds
7:40 AM 86.0 °F 90.4 °F 69.8 °F 58% 29.65 in 3.7 mi WSW 13.8 mph - N/A   Scattered Clouds
8:10 AM 87.8 °F 91.4 °F 68.0 °F 52% 29.65 in 3.7 mi West 11.5 mph - N/A   Scattered Clouds
8:30 AM 90 °F - 70 °F 42% 29.69 in 6 mi West 5.8 mph - -   Scattered Clouds
8:40 AM 89.6 °F 93.4 °F 68.0 °F 49% 29.65 in 3.7 mi West 16.1 mph - N/A   Scattered Clouds
9:10 AM 91.4 °F 96.8 °F 69.8 °F 49% 29.65 in 4.3 mi WSW 9.2 mph 20.7 mph N/A   Partly Cloudy
9:40 AM 93.2 °F 98.8 °F 69.8 °F 46% 29.65 in 4.3 mi West 11.5 mph 23.0 mph N/A   Partly Cloudy
10:10 AM 93.2 °F 98.8 °F 69.8 °F 46% 29.65 in 5.0 mi WSW 13.8 mph 25.3 mph N/A   Partly Cloudy
10:40 AM 95.0 °F 99.5 °F 68.0 °F 41% 29.65 in 5.0 mi West 16.1 mph 27.6 mph N/A   Partly Cloudy
11:10 AM 95.0 °F 99.5 °F 68.0 °F 41% 29.62 in 5.0 mi West 13.8 mph 25.3 mph N/A   Partly Cloudy
11:30 AM 98 °F - 68 °F 28% 29.66 in 6 mi West 13.8 mph - -   Scattered Clouds
11:40 AM 95.0 °F 99.5 °F 68.0 °F 41% 29.62 in 5.0 mi West 11.5 mph 23.0 mph N/A   Partly Cloudy
12:10 PM 96.8 °F 101.8 °F 68.0 °F 39% 29.62 in 5.0 mi West 11.5 mph 23.0 mph N/A   Partly Cloudy
12:40 PM 98.6 °F 105.5 °F 69.8 °F 39% 29.59 in 5.0 mi WSW 13.8 mph 25.3 mph N/A   Partly Cloudy
1:10 PM 98.6 °F 104.1 °F 68.0 °F 37% 29.59 in 5.0 mi West 13.8 mph 25.3 mph N/A   Partly Cloudy
1:40 PM 98.6 °F 104.1 °F 68.0 °F 37% 29.56 in 5.0 mi West 11.5 mph 23.0 mph N/A   Partly Cloudy
2:10 PM 98.6 °F 104.1 °F 68.0 °F 37% 29.56 in 5.0 mi West 11.5 mph 25.3 mph N/A   Scattered Clouds
2:30 PM 101 °F - 70 °F 27% 29.60 in 6 mi WNW 3.5 mph - -   Scattered Clouds
2:40 PM 98.6 °F 102.8 °F 66.2 °F 35% 29.53 in 5.0 mi WSW 13.8 mph 27.6 mph N/A   Scattered Clouds
3:10 PM 98.6 °F 102.8 °F 66.2 °F 35% 29.53 in 5.0 mi WSW 9.2 mph 20.7 mph N/A   Scattered Clouds
3:40 PM 98.6 °F 102.8 °F 66.2 °F 35% 29.53 in 5.0 mi West 11.5 mph 23.0 mph N/A   Scattered Clouds
4:10 PM 98.6 °F 102.8 °F 66.2 °F 35% 29.53 in 5.0 mi West 9.2 mph 20.7 mph N/A   Scattered Clouds
4:40 PM 96.8 °F 100.7 °F 66.2 °F 37% 29.53 in 4.3 mi West 11.5 mph - N/A   Scattered Clouds
5:10 PM 96.8 °F 100.7 °F 66.2 °F 37% 29.53 in 3.7 mi West 9.2 mph - N/A   Scattered Clouds
5:30 PM 95 °F - 75 °F 43% 29.60 in 6 mi South 3.5 mph - -   Mostly Cloudy
5:40 PM 96.8 °F 100.7 °F 66.2 °F 37% 29.53 in 3.7 mi South 5.8 mph - N/A   Scattered Clouds
6:10 PM 91.4 °F 102.5 °F 75.2 °F 59% 29.56 in 3.7 mi South 9.2 mph - N/A   Scattered Clouds
6:40 PM 89.6 °F 99.8 °F 75.2 °F 62% 29.56 in 3.7 mi SSE 9.2 mph - N/A   Scattered Clouds
7:10 PM 89.6 °F 102.2 °F 77.0 °F 66% 29.56 in 3.7 mi South 6.9 mph - N/A   Scattered Clouds
7:40 PM 87.8 °F 99.7 °F 77.0 °F 70% 29.59 in 3.7 mi SSE 8.1 mph - N/A   Scattered Clouds
8:10 PM 87.8 °F 99.7 °F 77.0 °F 70% 29.59 in 3.7 mi South 6.9 mph - N/A   Scattered Clouds
8:30 PM 89 °F - 79 °F 67% 29.63 in 2 mi South 3.5 mph - -   Partly Cloudy
8:40 PM 89.6 °F 102.2 °F 77.0 °F 66% 29.59 in 3.7 mi SSW 8.1 mph - N/A   Scattered Clouds
9:10 PM 91.4 °F 96.8 °F 69.8 °F 49% 29.62 in 3.7 mi WSW 9.2 mph - N/A   Scattered Clouds
9:40 PM 93.2 °F 96.2 °F 66.2 °F 41% 29.62 in 3.7 mi WSW 12.7 mph - N/A   Scattered Clouds
10:10 PM 93.2 °F 96.2 °F 66.2 °F 41% 29.62 in 3.7 mi WSW 12.7 mph - N/A   Scattered Clouds
10:40 PM 91.4 °F 94.0 °F 66.2 °F 43% 29.65 in 3.7 mi WSW 11.5 mph 23.0 mph N/A   Scattered Clouds
11:10 PM 89.6 °F 92.2 °F 66.2 °F 46% 29.65 in 3.7 mi WSW 9.2 mph 20.7 mph N/A   Scattered Clouds
11:30 PM 91 °F - 69 °F 39% 29.66 in 2 mi WSW 6.9 mph - -   Scattered Clouds
11:40 PM 89.6 °F 92.2 °F 66.2 °F 46% 29.62 in 3.7 mi West 9.2 mph 20.7 mph N/A   Scattered Clouds